Location: Palmerston North
(40.3500°S, 175.6170°E)
Time: 14:44:10
(UTC+13:00)

ISS - Pass Details

Date: 26 January 2019
Orbit: 403 x 411 km, 51.6° (Epoch: 17 February)

Event Time Altitude Azimuth Distance (km) Brightness Sun altitude
Exits shadow 05:36:01 - 353° (N) 2,327 -0.4 -7.7°
Reaches altitude 10° 05:38:59 10° 23° (NNE) 1,480 -1.1 -7.2°
Maximum altitude 05:40:31 13° 51° (NE) 1,330 -1.0 -7.0°
Drops below altitude 10° 05:42:04 10° 79° (ENE) 1,487 -0.2 -6.7°
Sets 05:45:05 0° 108° (ESE) 2,356 2.0 -6.2°
